Regional Weather Roundup
Issued by NWS

Home | Current Version | Previous Version | Graphics & Text | Print | Product List | Glossary On
Versions: 1 2 3 4 5 6 7 8 9 10 11 12 13 14 15 16 17 18 19 20 21 22 23 24 25 26 27 28 29 30 31 32 33 34 35 36 37 38 39 40 41 42 43 44 45 46 47 48 49 50
000
ASUS45 KBOU 242107
RWRCO

WEATHER ROUNDUP FOR COLORADO
NATIONAL WEATHER SERVICE DENVER/BOULDER CO
300 PM MDT MON APR 24 2017

NOTE: "FAIR" INDICATES FEW OR NO CLOUDS BELOW 12000 FEET WITH NO
SIGNIFICANT WEATHER AND/OR OBSTRUCTIONS TO VISIBILITY.

COZ001>005-013-030-031-242200-
...NORTHWEST COLORADO...

CITY           SKY/WX    TMP DP  RH WIND       PRES   REMARKS
CRAIG          CLOUDY    54  30  40 S16G23    29.66F
HAYDEN         PTSUNNY   52  28  40 SW8G21    29.68F
MEEKER         CLOUDY    57  28  33 S16       29.65F
MOUNT WERNER   NOT AVBL
STEAMBOAT SPGS CLOUDY    50  32  49 SW14      29.70F
WALDEN           N/A     50  30  46 SW20G31   29.74S
$$

COZ006>008-011-242200-
...WEST CENTRAL VALLEYS...

CITY           SKY/WX    TMP DP  RH WIND       PRES   REMARKS
GRAND JUNCTION PTSUNNY   70  26  19 SW17G32   29.61F
MONTROSE       PTSUNNY   62  26  25 SW23G38   29.74R
EAGLE          PTSUNNY   54  30  40 NW14G22   29.72F
RIFLE          PTSUNNY   63  27  25 S30G41    29.64F
DELTA          CLOUDY    68  23  18 SW18G29   29.69R
NUCLA          CLOUDY    64  21  19 S22G30    29.77F
$$

COZ017>023-064>068-242200-
...SOUTHWEST COLORADO...

CITY           SKY/WX    TMP DP  RH WIND       PRES   REMARKS
DURANGO        PTSUNNY   60  18  19 W24G37    29.82S
CORTEZ         CLOUDY    64  17  16 W16G26    29.79S
PAGOSA SPRINGS PTSUNNY   59  18  20 W17G25    29.85F
TELLURIDE      CLOUDY    45  26  47 S14G20    29.94R
WOLF CREEK PAS CLOUDY    34  18  51 SW32G44   30.01S WCI  20
$$

COZ009-010-012-014-032>034-037-058>063-242200-
...CENTRAL COLORADO...

CITY           SKY/WX    TMP DP  RH WIND       PRES   REMARKS
ASPEN          CLOUDY    48  32  53 S16G23    29.78R
BUENA VISTA    FAIR      56  23  28 SW17G29   29.76S
COPPER MTN     LGT SNOW  34  23  64 W21G30    29.90F WCI  22
BERTHOUD PASS  PTSUNNY   32  19  59 W29G35    29.89F WCI  18
COTTONWOOD PAS CLOUDY    45  27  49 SW26G44   29.81S
GUNNISON       FAIR      53  24  32 SW14G21   29.79F
KREMMLING      CLOUDY    55  36  47 W9        29.74R
LEADVILLE      PTSUNNY   44  21  40 SW15      29.82S
MONARCH PASS   CLOUDY    32  23  69 W36G45    30.03S WCI  16
SALIDA         PTSUNNY   60  24  25 W22G36    29.82R
SUNLIGHT       CLOUDY    34  25  69 SW15G31   29.87F WCI  24
WILKERSON PASS CLOUDY    43  18  36 SW10G25   29.90F
$$

COZ069>075-242200-
...SAN LUIS VALLEY/SANGRE DE CRISTO MOUNTAINS...

CITY           SKY/WX    TMP DP  RH WIND       PRES   REMARKS
ALAMOSA        FAIR      62  15  16 W26       29.76F
LA VETA PASS   PTSUNNY   46  18  31 SW29G46   29.93F
SAGUACHE       FAIR      61  19  20 NW20G28   29.76F
$$

COZ035-036-038>040-242200-
...NORTHERN COLORADO FRONT RANGE...

CITY           SKY/WX    TMP DP  RH WIND       PRES   REMARKS
DENVER INTL AP CLOUDY    66  29  24 E20G30    29.60F
DMNS CITY PARK   N/A     64  30  27 E13G20    29.59S
AURORA         PTSUNNY   64  30  27 E15       29.62F
FRONT RANGE AP CLOUDY    66  28  24 E7G16     29.63F
ERIE MUNI ARPT CLOUDY    66  28  23 E9G16     29.60S
BOULDER MUN AP CLOUDY    63  32  31 E7        29.59F
CENTENNIAL     PTSUNNY   63  31  30 NE13G20   29.61F
BROOMFIELD     CLOUDY    64  30  27 E9        29.62F
FORT COLLINS   FAIR      65  31  28 SE13      29.60S
LONGMONT       PTSUNNY   67  31  26 S6        29.61S
$$

COZ041-046-047-076>085-087-088-242200-
...PIKES PEAK/PALMER DIVIDE AND SOUTHERN FOOTHILLS...

CITY           SKY/WX    TMP DP  RH WIND       PRES   REMARKS
COLO. SPRINGS  CLOUDY    67  20  16 W20G31    29.62S
A. F. ACADEMY  PTSUNNY   64  19  17 SW10      29.62F
SCHRIEVER AFB  PTSUNNY   63  26  24 S17G26    29.63S
ELLICOTT       FAIR     N/A N/A N/A SW15G33   29.63R
FALCON         PTSUNNY   58  33  38 NE21      29.68R
FORT CARSON    PTSUNNY   68  23  18 S14       29.60S
LIMON          PTSUNNY   64  34  32 E12       29.63F
MONUMENT HILL  PTSUNNY   55  32  41 E13       29.69F
TRINIDAD       FAIR      72  15  11 W13       29.62F
$$

COZ042>045-048>051-090-091-242200-
...NORTHEAST COLORADO...

CITY           SKY/WX    TMP DP  RH WIND       PRES   REMARKS
GREELEY ARPT   FAIR      67  30  25 CALM      29.60F
AKRON          FAIR      65  31  28 N10       29.61F
BURLINGTON     NOT AVBL
WRAY           NOT AVBL
STERLING       FAIR      68  36  30 N9        29.58F
HOLYOKE        FAIR      73  36  25 N14       29.59F
FORT MORGAN    FAIR      67  26  21 NE5       29.60F
$$

COZ086-089-092>099-242200-
...SOUTHEAST COLORADO...

CITY           SKY/WX    TMP DP  RH WIND       PRES   REMARKS
PUEBLO         FAIR      77  27  15 S9        29.53F
LA JUNTA       FAIR      80  29  15 E7        29.53F
LAMAR          FAIR      80  36  20 E13G20    29.51F
SPRINGFIELD      N/A     78  24  13 CALM      29.55F
$$



USA.gov is the U.S. government's official web portal to all federal, state and local government web resources and services.